Hourly Data Report for December 05, 2018

TORONTO CITY
ONTARIO
Current Station Operator: ECCC - MSC

43°40'00.000" N
79°24'00.000" W
112.50 m
6158355
71508
XTO

Download Data

Hourly Data (December 2018)
Hourly Data Report for December 5, 2018
TIME
LST
Temp Definition
°C
Dew Point Definition
°C
Rel Hum Definition
%
Precip. Amount Definition
mm

Wind Dir Definition
10's deg

Wind Spd Definition
km/h
Visibility Definition
km
Stn Press Definition
kPa
Hmdx Definition


Wind Chill Definition


Weather Definition


00:00 -2.5 -7.5 68 0.0 LegendMM LegendMM   100.48     LegendNANA
01:00 -2.9 -8.0 68 0.0 LegendMM LegendMM   100.44     LegendNANA
02:00 -3.1 -7.8 70 0.0 LegendMM LegendMM   100.42     LegendNANA
03:00 -3.3 -7.6 72 0.0 LegendMM LegendMM   100.38     LegendNANA
04:00 -4.0 -8.0 74 0.0 LegendMM LegendMM   100.36     LegendNANA
05:00 -4.4 -7.8 77 0.0 LegendMM LegendMM   100.35     LegendNANA
06:00 -4.3 -7.5 78 0.0 LegendMM LegendMM   100.38     LegendNANA
07:00 -4.2 -7.5 78 0.0 LegendMM LegendMM   100.40     LegendNANA
08:00 -3.2 -7.1 74 0.0 LegendMM LegendMM   100.38     LegendNANA
09:00 -2.8 -7.1 72 0.0 LegendMM LegendMM   100.35     LegendNANA
10:00 -1.2 -6.1 69 0.0 LegendMM LegendMM   100.37     LegendNANA
11:00 0.2 -6.2 62 0.0 LegendMM LegendMM   100.35     LegendNANA
12:00 1.0 -6.2 59 0.0 LegendMM LegendMM   100.31     LegendNANA
13:00 1.7 -6.0 57 0.0 LegendMM LegendMM   100.28     LegendNANA
14:00 1.9 -7.9 48 0.0 LegendMM LegendMM   100.28     LegendNANA
15:00 1.8 -7.9 49 0.0 LegendMM LegendMM   100.28     LegendNANA
16:00 1.5 -7.7 50 0.0 LegendMM LegendMM   100.32     LegendNANA
17:00 0.8 -7.7 53 0.0 LegendMM LegendMM   100.32     LegendNANA
18:00 0.8 -7.6 53 0.0 LegendMM LegendMM   100.36     LegendNANA
19:00 0.7 -7.6 54 0.0 LegendMM LegendMM   100.40     LegendNANA
20:00 0.8 -7.3 55 0.0 LegendMM LegendMM   100.39     LegendNANA
21:00 0.8 -7.7 53 0.0 LegendMM LegendMM   100.38     LegendNANA
22:00 0.6 -6.8 57 0.0 LegendMM LegendMM   100.37     LegendNANA
23:00 0.6 -5.9 62 0.0 LegendMM LegendMM   100.37     LegendNANA

Notes on Data Quality.

Legend

  • E = Estimated
  • M = Missing
  • NA = Not Available*
  • [empty] = Indicates an unobserved value
Date modified: